Meath Environmental Platform

Observations

Time Sensor AQI SAQ Temp °C Hum % Pres Pa CO μg/m³ H₂S μg/m³ NO μg/m³ NO₂ μg/m³ O₃ μg/m³ SO₂ μg/m³ CO₂e PPM VOC PPM PM1 μg/m³ PM2.5 μg/m³ PM4 μg/m³ PM10 μg/m³ TPS µm
Tuesday 11 August 2026
01:46 Trim Patrick St 1 12.7 73 38,460 0.26 5.94 3.78 42.76 3.71 0 2.86 7.13 7.85
01:46 Trim Market St 2 14.5 65 57,602 0.28 0 2.3 15.78 32.93 0 1.43 3.3 4.9
01:45 Trim Patrick St 1 12.8 73 38,460 0.27 5.35 3.79 33.28 10.7 0 2.86 7.13 7.84
01:45 Trim Market St 2 14.5 65 57,610 0.27 0 1.87 13.31 37.91 0 2.14 3.8 5.55
01:44 Trim Patrick St 1 12.8 73 38,460 0.29 4.8 3.8 31.47 12.15 0 3.71 7.13 7.84
01:44 Trim Market St 2 14.5 65 57,616 0.28 0 2.18 14.75 34.84 0 2.14 3.3 5.55
01:43 Trim Patrick St 1 12.8 73 38,460 0.24 5.53 3.8 30.1 12.33 0 3.71 7.13 7.85
01:43 Trim Market St 2 14.5 65 57,626 0.27 0 2.44 13.85 38.04 0 1.43 3.8 5.55
01:42 Trim Patrick St 1 12.8 72 38,460 0.26 5.74 3.79 33.72 10.66 0 3.71 6.43 7.07
01:41 Trim Patrick St 1 12.8 72 38,460 0.26 5.4 3.8 33.26 10.67 0 3.71 7.15 7.86
01:40 Trim Patrick St 1 12.8 72 38,460 0.28 5.3 3.72 31.89 10.78 0 3.71 6.44 7.08
01:40 Trim Market St 2 14.6 64 57,648 0.27 0 2.64 16.02 35.93 0 1.43 2.82 4.23
01:39 Trim Patrick St 1 12.8 72 38,460 0.26 5.27 3.65 33.71 10.99 0 3.71 7.16 7.87
01:38 Trim Patrick St 1 12.9 72 38,460 0.26 5.2 3.73 32.28 10.94 0 3.71 7.87 8.66
01:38 Trim Market St 2 14.6 64 57,663 0.28 0 1.95 12.23 47.02 0 2.14 2.83 4.23
01:37 Trim Patrick St 1 12.9 72 38,460 0.25 5.38 3.69 32.27 12.3 0 3.71 7.16 7.88
01:36 Trim Patrick St 1 12.9 72 38,460 0.26 5.4 3.76 32.26 9.68 0 3.71 7.17 7.89
01:36 Trim Market St 2 14.6 64 57,665 0.27 0 2.14 14.91 37.7 0 1.43 3.82 6.87
01:35 Trim Patrick St 1 12.9 72 38,460 0.26 5.04 3.76 33.62 10.46 0 3.71 7.17 7.89
01:35 Trim Market St 2 14.6 64 57,669 0.27 0 2.05 13.68 37.7 0 1.43 3.82 6.87